Location: Newark
(50.2306°N, 14.0814°E)
Time: 05:02:28
(UTC+00:00)

N. Korean satellite - Pass Details

Date: 08 December 2019
Orbit: 454 x 508 km, 97.2° (Epoch: 20 January)

Event Time Altitude Azimuth Distance (km) Brightness Sun altitude
Rises 05:49:38 0° 4° (N) 2,573 10.0 -9.1°
Reaches altitude 10° 05:51:54 10° 353° (N) 1,677 9.0 -8.8°
Maximum altitude 05:55:01 28° 293° (WNW) 920 7.4 -8.3°
Drops below altitude 10° 05:58:05 10° 232° (SW) 1,637 9.0 -7.9°
Sets 06:00:17 0° 221° (SW) 2,500 10.0 -7.6°
